Flag for U.S.A. Weather past 2 weeks in Sioux Falls, South Dakota, U.S.A.

Now
2 °F

Broken clouds.


Feels Like: -13 °F
Forecast: -6 / 12 °F
Wind: 9 mph from Northeast

Location: Foss Field

Current Time: Dec 29, 2014 at 10:51:03 AM

Latest Report: Dec 29, 2014 at 9:56 AM


Visibility: 10 mi

Pressure: 30.64 "Hg

Humidity: 76%

Dew point: -4 °F

Location of Sioux FallsLocation

Historic Weather in Sioux Falls — Graph

°F

Sioux Falls temperature yesterday

Maximum temperature yesterday: 21 °F (at 4:56 PM)
Minimum temperature yesterday: -3 °F (at 7:56 AM)
Average temperature yesterday: 10 °F

Past Weeks' High & Low Weather Summary

 TemperatureHumidityPressure
High55 °F (Dec 14, 11:56 AM)100% (Dec 20, 10:56 PM)30.64 "Hg (Dec 20, 10:56 PM)
Low-3 °F (Dec 28, 7:56 AM)65% (Dec 17, 2:56 PM)29.42 "Hg (Dec 22, 1:56 PM)
Average26 °F89%30.02 "Hg
* Reported Dec 14 9:56 AM — Dec 29 9:56 AM, Sioux Falls, Weather by CustomWeather, © 2014

Note: Actual official high and low records may vary slightly from our data, if they occured in-between our weather recording intervals... More about our weather records

Advertising

Sioux Falls weather history for previous 24 hours

 ConditionsComfort  
Time TempWeatherWind HumidityBarometerVisibility
9:56 AM
Dec 29
2 °FBroken clouds.9 mph76%30.64 "Hg10 mi
8:56 AM4 °FPartly sunny.16 mph76%30.60 "Hg10 mi
7:56 AM5 °FPassing clouds.13 mph80%30.57 "Hg10 mi
6:56 AM5 °FPassing clouds.14 mph80%30.54 "Hg10 mi
5:56 AM7 °FLight snow. Ice fog.15 mph83%30.50 "Hg5 mi
4:56 AM9 °FLight snow. Overcast.14 mph84%30.47 "Hg8 mi
3:56 AM11 °FLight snow. Ice fog.10 mph84%30.45 "Hg6 mi
2:56 AM11 °FLight snow. Ice fog.14 mph84%30.43 "Hg6 mi
1:56 AM12 °FMostly cloudy.16 mph80%30.41 "Hg10 mi
12:56 AM12 °FLight snow. Mostly cloudy.14 mph84%30.40 "Hg8 mi
11:56 PM
Dec 28
13 °FLight snow. Ice fog.13 mph84%30.40 "Hg5 mi
10:56 PM15 °FLight snow. Ice fog.10 mph83%30.39 "Hg3 mi
9:56 PM17 °FLight snow. Ice fog.14 mph83%30.36 "Hg2 mi
8:56 PM19 °FOvercast.13 mph81%30.34 "Hg9 mi
7:56 PM20 °FOvercast.10 mph85%30.32 "Hg10 mi
6:56 PM20 °FOvercast.9 mph85%30.30 "Hg10 mi
5:56 PM20 °FOvercast.12 mph89%30.28 "Hg10 mi
4:56 PM21 °FLow clouds.13 mph85%30.26 "Hg9 mi
3:56 PM20 °FLow clouds.14 mph89%30.25 "Hg8 mi
2:56 PM20 °FLow clouds.14 mph89%30.24 "Hg8 mi
1:56 PM17 °FIce fog.9 mph88%30.23 "Hg6 mi
12:56 PM16 °FPartly sunny.6 mph80%30.22 "Hg10 mi
11:56 AM13 °FScattered clouds.3 mph84%30.23 "Hg10 mi
10:56 AM8 °FPassing clouds.No wind91%30.25 "Hg9 mi
Weather by CustomWeather, © 2014

See weather overviewHow to use our weather pages